Location: Gebenbach
(49.5378°N, 11.8735°E)
Time: 13:20:04
(UTC+00:00)

CSL-04 Rocket - Pass Details

Date: 29 October 2020
Orbit: 805 x 861 km, 98.9° (Epoch: 28 November)

Event Time Altitude Azimuth Distance (km) Brightness Sun altitude
Rises 16:54:11 0° 129° (SE) 3,427 6.5 -10.1°
Reaches altitude 10° 16:56:49 10° 119° (ESE) 2,490 5.7 -10.5°
Maximum altitude 17:01:32 30° 61° (ENE) 1,498 4.5 -11.3°
Drops below altitude 10° 17:06:13 10° 2° (N) 2,480 6.0 -12.0°
Sets 17:08:50 0° 352° (N) 3,411 6.9 -12.5°
